Location: アルンシュタイン
(50.0000°N, 10.0000°E)
Time: 03:06:48
(UTC+02:00)

Vanguard 1 - Pass Details

Date: 14 September 2024
Orbit: 648 x 3825 km, 34.3° (Epoch: 11 October)

Event Time Altitude Azimuth Distance (km) Brightness Sun altitude
Rises 14:55:41 0° 235° (SW) 5,478 14.7 38.5°
Reaches altitude 10° 15:00:54 10° 222° (SW) 3,860 14.4 38.0°
Maximum altitude 15:07:13 21° 179° (S) 2,401 13.1 37.5°
Drops below altitude 10° 15:11:41 10° 132° (SE) 2,614 12.4 37.0°
Sets 15:14:27 0° 114° (ESE) 3,308 12.7 36.8°
